Flag for Japan Weather past 2 weeks in Kagoshima, Japan

Now
75 °F

Mild.


Feels Like: 75 °F
Forecast: 72 / 82 °F
Wind: 2 mph from Northeast

Location: Kagoshima

Current Time: Oct 2, 2014 at 3:08:22 AM

Latest Report: Oct 2, 2014 at 2:00 AM


Visibility: N/A

Pressure: 29.89 "Hg

Humidity: 81%

Dew point: 69 °F

Location of KagoshimaLocation

Historic Weather in Kagoshima — Graph

°F

Kagoshima temperature yesterday

Maximum temperature yesterday: 78 °F (at 1:00 AM)
Minimum temperature yesterday: 70 °F (at 6:00 AM)
Average temperature yesterday: 75 °F

Past Weeks' High & Low Weather Summary

 TemperatureHumidityPressure
High87 °F (Sep 17, 3:00 PM)97% (Sep 22, 12:00 AM)30.06 "Hg (Sep 22, 12:00 AM)
Low64 °F (Sep 20, 1:00 AM)51% (Sep 17, 3:00 PM)29.77 "Hg (Sep 25, 1:00 AM)
Average76 °F78%29.91 "Hg
* Reported Sep 17 1:00 AM — Oct 2 1:00 AM, Kagoshima, Weather by CustomWeather, © 2014

Note: Actual official high and low records may vary slightly from our data, if they occured in-between our weather recording intervals... More about our weather records

Advertising

Kagoshima weather history for previous 24 hours

 ConditionsComfort  
Time TempWeatherWind HumidityBarometerVisibility
1:00 AM
Oct 2
76 °FMild.5 mph80%29.91 "HgN/A
12:00 AM75 °FMild.7 mph80%29.93 "HgN/A
11:00 PM
Oct 1
75 °FMild.8 mph79%29.93 "HgN/A
10:00 PM75 °FMild.8 mph75%29.93 "HgN/A
9:00 PM76 °FFog.3 mph76%29.94 "Hg5 mi
8:00 PM76 °FMild.5 mph78%29.94 "HgN/A
7:00 PM76 °FMild.9 mph78%29.93 "HgN/A
6:00 PM76 °FOvercast.6 mph76%29.92 "Hg5 mi
5:00 PM76 °FMild.8 mph77%29.92 "HgN/A
4:00 PM77 °FWarm.10 mph74%29.91 "HgN/A
3:00 PM77 °FOvercast.9 mph73%29.91 "Hg5 mi
2:00 PM77 °FMild.8 mph72%29.92 "HgN/A
1:00 PM77 °FWarm.9 mph72%29.93 "HgN/A
12:00 PM76 °FFog.3 mph73%29.96 "Hg5 mi
11:00 AM75 °FMild.7 mph76%29.98 "HgN/A
10:00 AM73 °FMild.6 mph82%29.98 "HgN/A
9:00 AM71 °FOvercast.10 mph90%29.98 "Hg6 mi
8:00 AM70 °FMild.10 mph93%29.97 "HgN/A
7:00 AM70 °FMild.13 mph90%29.97 "HgN/A
6:00 AM70 °FSprinkles. Overcast.13 mph93%29.95 "Hg5 mi
5:00 AM72 °FMild.7 mph90%29.93 "HgN/A
4:00 AM73 °FMild.8 mph92%29.91 "HgN/A
3:00 AM74 °FRain showers. Overcast.6 mph88%29.90 "Hg6 mi
Weather by CustomWeather, © 2014

See weather overviewHow to use our weather pages